TimeCST,TemperatureF,Dew PointF,Humidity,Sea Level PressureIn,VisibilityMPH,Wind Direction,Wind SpeedMPH,Gust SpeedMPH,PrecipitationIn,Events,Conditions,WindDirDegrees,DateUTC
12:53 AM,10.9,7.0,84,29.83,10.0,Calm,Calm,-,N/A,,Clear,0,2014-01-19 06:53:00
1:53 AM,12.9,9.0,84,29.81,10.0,Variable,4.6,-,N/A,,Partly Cloudy,0,2014-01-19 07:53:00
2:53 AM,14.0,10.0,84,29.81,10.0,SW,5.8,-,N/A,,Overcast,220,2014-01-19 08:53:00
3:53 AM,16.0,10.9,81,29.75,10.0,SW,9.2,-,N/A,,Overcast,220,2014-01-19 09:53:00
4:53 AM,18.0,12.0,78,29.72,10.0,WSW,9.2,20.7,N/A,,Clear,240,2014-01-19 10:53:00
5:53 AM,18.0,12.0,78,29.69,10.0,WSW,9.2,23.0,N/A,,Mostly Cloudy,240,2014-01-19 11:53:00
6:53 AM,18.0,12.0,78,29.67,10.0,SW,10.4,20.7,N/A,,Scattered Clouds,230,2014-01-19 12:53:00
7:53 AM,18.0,12.9,81,29.66,10.0,WSW,9.2,18.4,N/A,,Partly Cloudy,240,2014-01-19 13:53:00
8:53 AM,19.9,14.0,78,29.66,10.0,WSW,10.4,18.4,N/A,,Partly Cloudy,240,2014-01-19 14:53:00
9:53 AM,24.1,16.0,71,29.65,10.0,Variable,6.9,-,N/A,,Partly Cloudy,0,2014-01-19 15:53:00
10:53 AM,27.0,18.0,69,29.64,10.0,SW,9.2,17.3,N/A,,Partly Cloudy,230,2014-01-19 16:53:00
11:53 AM,30.9,19.9,64,29.61,10.0,WSW,10.4,19.6,N/A,,Scattered Clouds,240,2014-01-19 17:53:00
12:53 PM,32.0,21.0,64,29.58,10.0,WSW,11.5,17.3,N/A,,Mostly Cloudy,240,2014-01-19 18:53:00
1:53 PM,33.1,21.9,64,29.56,10.0,Variable,6.9,-,N/A,,Mostly Cloudy,0,2014-01-19 19:53:00
2:53 PM,32.0,21.0,64,29.50,10.0,SW,8.1,-,N/A,,Mostly Cloudy,220,2014-01-19 20:53:00
3:53 PM,33.1,21.9,64,29.51,10.0,SW,10.4,18.4,N/A,,Mostly Cloudy,230,2014-01-19 21:53:00
4:53 PM,32.0,23.0,69,29.52,10.0,SW,6.9,-,N/A,,Mostly Cloudy,230,2014-01-19 22:53:00
5:53 PM,33.1,24.1,70,29.52,10.0,SW,5.8,-,N/A,,Mostly Cloudy,230,2014-01-19 23:53:00
6:53 PM,32.0,24.1,73,29.52,10.0,Calm,Calm,-,N/A,,Mostly Cloudy,0,2014-01-20 00:53:00
7:53 PM,28.9,23.0,78,29.52,10.0,WSW,3.5,-,N/A,,Mostly Cloudy,240,2014-01-20 01:53:00
8:53 PM,33.1,25.0,72,29.53,10.0,West,8.1,-,N/A,,Overcast,260,2014-01-20 02:53:00
9:53 PM,34.0,26.1,73,29.57,10.0,WNW,6.9,-,N/A,,Overcast,300,2014-01-20 03:53:00
10:53 PM,34.0,26.1,73,29.59,10.0,WNW,8.1,-,N/A,,Overcast,290,2014-01-20 04:53:00
11:53 PM,34.0,27.0,75,-9999,10.0,NW,6.9,-,N/A,,Overcast,310,2014-01-20 05:53:00